Location: Dalton
(34.7700°N, 84.9700°W)
Time: 08:38:16
(UTC-04:00)

N. Korean satellite - Pass Details

Date: 11 October 2017
Orbit: 459 x 517 km, 97.2° (Epoch: 19 October)

Event Time Altitude Azimuth Distance (km) Brightness Sun altitude
Rises 20:31:42 0° 197° (SSW) 2,568 10.4 -17.6°
Reaches altitude 10° 20:34:10 10° 215° (SW) 1,680 9.7 -18.1°
Maximum altitude 20:36:55 20° 264° (W) 1,166 9.4 -18.7°
Drops below altitude 10° 20:39:38 10° 314° (NW) 1,664 10.0 -19.2°
Sets 20:42:05 0° 331° (NNW) 2,536 10.7 -19.7°
